When you browse on this site, cookies collect data to enhance your experience and personalize the content and advertising you see.
Visit our Privacy Policy to learn more. By continuing to use the site, you agree to this use of cookies and data.
  • In Sweden
  • List of Countries
  • For 7 days
  • Water Temperature
  • Weather Map
  • Weather Widgets
  • user-avatar
    Login

    Hourly Weather Nottingham

    Today, 21 February, Friday

    Time Temperature Precipitation Wind Pressure Humidity
    00:00 +1°C° 0 mm 6 mps 757 mmHg 83%
    01:00 +1°C° 0 mm 6 mps 757 mmHg 83%
    02:00 +2°C° 0 mm 6 mps 757 mmHg 83%
    03:00 +2°C° 0 mm 7 mps 757 mmHg 82%
    04:00 +2°C° 0 mm 7 mps 757 mmHg 82%
    05:00 +2°C° 0 mm 7 mps 757 mmHg 82%
    06:00 +2°C° 0 mm 6 mps 758 mmHg 83%
    13:00 +7°C° 0 mm 9 mps 756 mmHg 75%
    14:00 +7°C° 0 mm 10 mps 756 mmHg 75%
    15:00 +7°C° 0 mm 11 mps 755 mmHg 75%
    16:00 +7°C° 0 mm 10 mps 755 mmHg 75%
    17:00 +7°C° 0 mm 10 mps 755 mmHg 76%
    18:00 +7°C° 0 mm 10 mps 755 mmHg 77%
    19:00 +7°C° 0 mm 11 mps 754 mmHg 77%
    20:00 +7°C° 0 mm 11 mps 753 mmHg 77%
    21:00 +7°C° 0 mm 12 mps 753 mmHg 77%
    22:00 +7°C° 0.1 mm 12 mps 753 mmHg 78%
    23:00 +8°C° 0.1 mm 12 mps 752 mmHg 79%

    Tomorrow, 22 February, Saturday

    Time Temperature Precipitation Wind Pressure Humidity
    00:00 +8°C° 0.1 mm 12 mps 752 mmHg 79%
    01:00 +8°C° 0.3 mm 12 mps 751 mmHg 81%
    02:00 +8°C° 0.3 mm 12 mps 750 mmHg 82%
    03:00 +9°C° 0.3 mm 12 mps 749 mmHg 84%
    04:00 +9°C° 0.1 mm 12 mps 749 mmHg 81%
    05:00 +9°C° 0.1 mm 12 mps 749 mmHg 79%
    06:00 +9°C° 0.1 mm 12 mps 749 mmHg 76%
    07:00 +8°C° 0.1 mm 11 mps 750 mmHg 76%
    08:00 +7°C° 0.1 mm 11 mps 751 mmHg 76%
    09:00 +6°C° 0.1 mm 10 mps 751 mmHg 76%
    10:00 +6°C° 0.1 mm 11 mps 752 mmHg 74%
    11:00 +6°C° 0.1 mm 11 mps 753 mmHg 71%
    12:00 +5°C° 0.1 mm 12 mps 754 mmHg 69%
    13:00 +4°C° 0.1 mm 11 mps 754 mmHg 68%
    14:00 +4°C° 0.1 mm 11 mps 755 mmHg 68%
    15:00 +4°C° 0.1 mm 11 mps 755 mmHg 68%
    16:00 +3°C° 0.1 mm 10 mps 756 mmHg 71%
    17:00 +3°C° 0.1 mm 9 mps 756 mmHg 74%
    18:00 +2°C° 0.1 mm 8 mps 757 mmHg 76%
    19:00 +2°C° 0 mm 8 mps 757 mmHg 77%
    20:00 +3°C° 0 mm 7 mps 757 mmHg 78%
    21:00 +3°C° 0 mm 7 mps 758 mmHg 78%
    22:00 +3°C° 0 mm 7 mps 758 mmHg 78%
    23:00 +3°C° 0 mm 7 mps 758 mmHg 78%

    Day after tomorrow, 23 February, Sunday

    Time Temperature Precipitation Wind Pressure Humidity
    00:00 +3°C° 0 mm 7 mps 758 mmHg 78%
    01:00 +3°C° 0.4 mm 6 mps 757 mmHg 83%
    02:00 +3°C° 0.4 mm 5 mps 756 mmHg 87%
    03:00 +4°C° 0.4 mm 4 mps 755 mmHg 91%
    04:00 +5°C° 1.9 mm 5 mps 753 mmHg 93%
    05:00 +5°C° 1.9 mm 5 mps 751 mmHg 95%
    06:00 +6°C° 1.9 mm 5 mps 750 mmHg 96%
    07:00 +6°C° 1.4 mm 7 mps 749 mmHg 94%
    08:00 +7°C° 1.4 mm 8 mps 748 mmHg 91%
    09:00 +9°C° 1.4 mm 10 mps 748 mmHg 89%
    10:00 +8°C° 0.1 mm 9 mps 749 mmHg 85%
    11:00 +7°C° 0.1 mm 9 mps 750 mmHg 82%
    12:00 +6°C° 0.1 mm 8 mps 752 mmHg 79%
    13:00 +5°C° 0 mm 8 mps 753 mmHg 79%
    14:00 +4°C° 0 mm 7 mps 754 mmHg 79%
    15:00 +3°C° 0 mm 7 mps 756 mmHg 80%
    16:00 +3°C° 0 mm 6 mps 757 mmHg 78%
    17:00 +2°C° 0 mm 5 mps 758 mmHg 76%
    18:00 +1°C° 0 mm 4 mps 759 mmHg 75%
    19:00 +1°C° 0 mm 4 mps 760 mmHg 76%
    20:00 0°C° 0 mm 4 mps 761 mmHg 78%
    21:00 +1°C° 0 mm 3 mps 761 mmHg 79%
    22:00 +1°C° 0 mm 3 mps 762 mmHg 80%
    23:00 +2°C° 0 mm 2 mps 762 mmHg 82%

    24 February, Monday

    Time Temperature Precipitation Wind Pressure Humidity
    00:00 +2°C° 0 mm 2 mps 762 mmHg 83%
    01:00 +2°C° 0.1 mm 2 mps 761 mmHg 84%
    02:00 +1°C° 0.1 mm 3 mps 760 mmHg 85%
    03:00 +1°C° 0.1 mm 3 mps 759 mmHg 86%
    04:00 +1°C° 0.1 mm 4 mps 758 mmHg 85%
    05:00 +1°C° 0.1 mm 5 mps 757 mmHg 83%
    06:00 +1°C° 0.1 mm 6 mps 756 mmHg 81%
    07:00 +3°C° 0 mm 7 mps 754 mmHg 85%
    08:00 +4°C° 0 mm 7 mps 752 mmHg 88%
    09:00 +6°C° 0 mm 8 mps 751 mmHg 91%
    10:00 +6°C° 0.7 mm 8 mps 749 mmHg 90%
    11:00 +7°C° 0.7 mm 9 mps 748 mmHg 89%
    12:00 +8°C° 0.7 mm 9 mps 747 mmHg 87%
    13:00 +8°C° 0.1 mm 10 mps 747 mmHg 83%
    14:00 +7°C° 0.1 mm 10 mps 746 mmHg 79%
    15:00 +7°C° 0.1 mm 11 mps 746 mmHg 75%
    16:00 +6°C° 0 mm 10 mps 746 mmHg 74%
    17:00 +5°C° 0 mm 10 mps 746 mmHg 73%
    18:00 +3°C° 0 mm 10 mps 746 mmHg 73%
    19:00 +3°C° 0 mm 10 mps 746 mmHg 72%
    20:00 +2°C° 0 mm 10 mps 746 mmHg 72%
    21:00 +2°C° 0 mm 10 mps 746 mmHg 71%
    22:00 +2°C° 0 mm 10 mps 746 mmHg 71%
    23:00 +1°C° 0 mm 10 mps 746 mmHg 72%

    25 February, Tuesday

    Time Temperature Precipitation Wind Pressure Humidity
    00:00 +1°C° 0 mm 10 mps 746 mmHg 72%
    01:00 +1°C° 0 mm 10 mps 746 mmHg 73%
    02:00 +1°C° 0 mm 10 mps 746 mmHg 74%
    03:00 +1°C° 0 mm 10 mps 745 mmHg 74%
    04:00 0°C° 0 mm 10 mps 745 mmHg 76%
    05:00 0°C° 0 mm 9 mps 745 mmHg 77%
    06:00 0°C° 0 mm 9 mps 745 mmHg 78%
    07:00 0°C° 0 mm 9 mps 745 mmHg 76%
    08:00 +1°C° 0 mm 9 mps 745 mmHg 73%
    09:00 +1°C° 0 mm 9 mps 745 mmHg 70%
    10:00 +2°C° 0 mm 9 mps 745 mmHg 67%
    11:00 +3°C° 0 mm 9 mps 745 mmHg 64%
    12:00 +3°C° 0 mm 9 mps 745 mmHg 61%
    13:00 +3°C° 0.1 mm 9 mps 744 mmHg 61%
    14:00 +5°C° 0.1 mm 8 mps 744 mmHg 61%
    15:00 +5°C° 0.1 mm 8 mps 743 mmHg 62%
    16:00 +4°C° 0.1 mm 7 mps 743 mmHg 68%
    17:00 +3°C° 0.1 mm 6 mps 742 mmHg 74%
    18:00 +1°C° 0.1 mm 5 mps 742 mmHg 80%
    19:00 +1°C° 0.7 mm 6 mps 742 mmHg 83%
    20:00 0°C° 0.7 mm 8 mps 742 mmHg 86%
    21:00 -1°C° 0.7 mm 9 mps 742 mmHg 89%
    22:00 -1°C° 0.1 mm 9 mps 742 mmHg 88%
    23:00 -1°C° 0.1 mm 8 mps 742 mmHg 87%

    26 February, Wednesday

    Time Temperature Precipitation Wind Pressure Humidity
    00:00 -2°C° 0.1 mm 8 mps 742 mmHg 86%
    01:00 -2°C° 0.1 mm 8 mps 743 mmHg 85%
    02:00 -2°C° 0.1 mm 8 mps 743 mmHg 83%
    03:00 -2°C° 0.1 mm 7 mps 744 mmHg 82%
    04:00 -2°C° 0 mm 8 mps 744 mmHg 80%
    05:00 -2°C° 0 mm 8 mps 745 mmHg 77%
    06:00 -2°C° 0 mm 8 mps 745 mmHg 75%
    07:00 -1°C° 0 mm 8 mps 746 mmHg 75%
    08:00 0°C° 0 mm 9 mps 746 mmHg 76%
    09:00 0°C° 0 mm 9 mps 747 mmHg 76%
    10:00 +1°C° 0.1 mm 10 mps 747 mmHg 74%
    11:00 +1°C° 0.1 mm 10 mps 748 mmHg 72%
    12:00 +2°C° 0.1 mm 10 mps 749 mmHg 69%
    13:00 +2°C° 0 mm 10 mps 749 mmHg 66%
    14:00 +2°C° 0 mm 10 mps 749 mmHg 63%
    15:00 +2°C° 0 mm 9 mps 750 mmHg 61%
    16:00 +1°C° 0 mm 8 mps 750 mmHg 65%
    17:00 +1°C° 0 mm 6 mps 750 mmHg 69%
    18:00 0°C° 0 mm 5 mps 751 mmHg 73%
    19:00 0°C° 0 mm 5 mps 751 mmHg 79%
    20:00 0°C° 0 mm 5 mps 751 mmHg 85%
    21:00 -1°C° 0 mm 5 mps 751 mmHg 91%
    22:00 0°C° 0 mm 5 mps 751 mmHg 90%
    23:00 0°C° 0 mm 5 mps 750 mmHg 89%
    Show more